Regional Weather Roundup
Issued by NWS

Home | Current Version | Previous Version | Text Only | Print | Product List | Glossary Off
Versions: 1 2 3 4 5 6 7 8 9 10 11 12 13 14 15 16 17 18 19 20 21 22 23 24 25 26 27 28 29 30 31 32 33 34 35 36 37 38 39 40 41 42 43 44 45 46 47 48 49 50

000
ASUS43 KLSX 222107
RWRMO

WEATHER SUMMARY FOR MISSOURI
NATIONAL WEATHER SERVICE SPRINGFIELD MO
400 PM CDT TUE APR 22 2014

NOTE: "FAIR" INDICATES FEW OR NO CLOUDS BELOW 12,000 FEET WITH NO
       SIGNIFICANT WEATHER AND/OR OBSTRUCTIONS TO VISIBILITY.
       CURRENT SKY AND/OR WEATHER CONDITIONS ARE NOT AVAILABLE FOR
       CHILLICOTHE AND FARMINGTON.

MOZ001>031-035>038-043-044-053-054-222200-
...NORTHERN AND WESTERN MISSOURI...

CITY           SKY/WX    TMP DP  RH WIND       PRES   REMARKS
KANSAS CTY INT SUNNY     67  30  25 VRB3      30.06F
KANSAS C DTWN  SUNNY     70  33  25 NE7       30.04F
LEE`S SUMMIT   SUNNY     69  34  27 CALM      30.05F
ST JOSEPH      SUNNY     68  31  25 VRB3      30.06F
CHILLICOTHE      N/A     66  35  31 VRB5      30.06F
KIRKSVILLE     SUNNY     66  31  27 N13G20    30.06F

$$
MOZ066>068-077>081-088>096-101>105-222200-
...SOUTHWEST MISSOURI...

CITY           SKY/WX    TMP DP  RH WIND       PRES   REMARKS
SPRINGFIELD    SUNNY     69  35  28 VRB6      30.02F
JOPLIN         SUNNY     69  36  29 VRB6      30.04F

$$
MOZ032>034-039>042-045>050-055>058-069>072-222200-
...CENTRAL MISSOURI...

CITY           SKY/WX    TMP DP  RH WIND       PRES   REMARKS
COLUMBIA       SUNNY     66  37  34 N7G16     30.04F
JEFFERSON CITY SUNNY     68  29  23 NW12G18   30.02F
ROLLA          SUNNY     68  35  29 N13       30.01F
SEDALIA        SUNNY     67  34  29 NW7       30.05F
WHITEMAN AFB   SUNNY     66  26  22 NE9       30.04F
OSAGE BEACH    SUNNY     68  32  26 N8        30.04F

$$
MOZ051-052-059>065-222200-
...EAST CENTRAL MISSOURI...

CITY           SKY/WX    TMP DP  RH WIND       PRES   REMARKS
ST LOUIS INTL  MOSUNNY   69  39  33 W14       30.00F
SPIRIT OF STL  MOSUNNY   67  38  34 NW13G18   30.01S
ST CHARLES     SUNNY     67  37  33 W14       29.99F

$$
MOZ072>076-082>087-097>100-106>115-222200-
...SOUTH CENTRAL AND SOUTHEAST MISSOURI...

CITY           SKY/WX    TMP DP  RH WIND       PRES   REMARKS
CAPE GIRARDEAU SUNNY     72  42  34 N14       29.94F
FARMINGTON     SUNNY     70  37  30 NW12      30.00S
POPLAR BLUFF   SUNNY     76  39  26 N12G18    29.92F
WEST PLAINS    SUNNY     73  35  25 NW12G22   29.99F

$$



USA.gov is the U.S. government's official web portal to all federal, state and local government web resources and services.